Regional Weather Roundup
Issued by NWS

Home | Current Version | Previous Version | Graphics & Text | Print | Product List | Glossary On
Versions: 1 2 3 4 5 6 7 8 9 10 11 12 13 14 15 16 17 18 19 20 21 22 23 24 25 26 27 28 29 30 31 32 33 34 35 36 37 38 39 40 41 42 43 44 45 46 47 48 49 50
000
ASUS43 KDTX 241301
RWRMI
MICHIGAN HOURLY REGIONAL WEATHER ROUNDUP
NATIONAL WEATHER SERVICE DETROIT/PONTIAC MI
900 AM EDT FRI MAR 24 2017

NOTE: "FAIR" INDICATES FEW OR NO CLOUDS BELOW 12,000 FEET WITH NO
SIGNIFICANT WEATHER AND/OR OBSTRUCTION TO VISIBILITY.

MIZ047>049-052>055-059>063-066>070-074>076-081>083-241400-
SOUTHEAST LOWER MICHIGAN

CITY           SKY/WX    TMP DP  RH WIND       PRES   REMARKS
ADRIAN         MOSUNNY   50  42  74 SW15G22   30.03F
ALMA           CLOUDY    41  38  91 N5        29.96R
ANN ARBOR      MOSUNNY   47  41  80 S14       30.00F
BAD AXE        PTSUNNY   38  35  87 S6        29.97F WCI  34
CARO           PTSUNNY   45  39  79 CALM      29.96S
DETROIT CITY   CLOUDY    48  40  73 SW12      30.00F
DETROIT        CLOUDY    51  42  71 SW17      30.01F
FLINT          CLOUDY    49  39  68 SW12      29.95F
GROSSE ILE     CLOUDY    50  41  70 SW13G20   30.01F
HILLSDALE      CLOUDY    46  41  81 S14G23    30.01F
HOWELL         CLOUDY    49  39  70 SW10      29.97F

CITY           SKY/WX    TMP DP  RH WIND       PRES   REMARKS
JACKSON        MOSUNNY   52  42  69 SW15      29.99F
LAMBERTVILLE   MOSUNNY   56  44  64 SW12G18   30.03F
LANSING        CLOUDY    51  40  65 SW15      29.95F
LAPEER         FAIR      51  40  66 SW9       29.95F
MASON          CLOUDY    50  43  75 SW5       29.96F
MONROE         CLOUDY    53  44  71 SW16G23   30.02S
MT. CLEMENS    CLOUDY    47  41  78 SW10      29.97F
PONTIAC        CLOUDY    49  39  68 SW14      29.96F
PORT HOPE        N/A     37  33  85 SE8       29.94F WCI  31
PORT HURON     CLOUDY    45  36  70 S9        29.99F
TRI CITIES     CLOUDY    39  38  96 NE6       29.96F FOG     WCI  35
MIDLAND        PTSUNNY   40  36  85 CALM      29.94F
TROY           CLOUDY    48  38  70 SW12G20   30.01F
SAGINAW HB     CLOUDY    41  36  81 N3        29.96S
$$
MIZ043>046-050>051-056>058-064>065-071>073-077>080-241400-
SOUTHWEST LOWER MICHIGAN

CITY           SKY/WX    TMP DP  RH WIND       PRES   REMARKS
BATTLE CREEK   CLOUDY    51  42  71 SW12      29.98S
BENTON HARBOR  MOSUNNY   55  43  63 S12       29.95F
BIG RAPIDS     PTSUNNY   41  39  94 S5        29.92F
COLDWATER      PTSUNNY   52  42  69 S10G20    29.99F
FREMONT        CLOUDY    46  38  76 SW8       29.93S
HOLLAND        CLOUDY    56  45  66 SW18G38   29.92S
GRAND RAPIDS   CLOUDY    51  41  68 SW9       29.94R
IONIA          FAIR      47  40  74 SW9       29.93S
KALAMAZOO      MOSUNNY   52  41  66 S15G22    29.98S
LUDINGTON      PTSUNNY   46  38  76 SW6       29.90S
MARSHALL       MOSUNNY   52  43  70 SW10G18   29.98S
MOUNT PLEASANT PTSUNNY   38  36  92 CALM      29.93F FOG
MUSKEGON       CLOUDY    45  38  76 S6        29.95R
SOUTH HAVEN    MOSUNNY   56  45  66 S13G21    29.94S
$$
MIZ016>042-241400-
NORTHERN LOWER MICHIGAN

CITY           SKY/WX    TMP DP  RH WIND       PRES   REMARKS
ALPENA         CLOUDY    33  33 100 SE5       29.94S FOG     WCI  29
BEAVER ISLAND  LGT RAIN  35  35 100 SW5       29.91F WCI  31
BELLAIRE       CLOUDY    36  35  96 CALM      29.90F FOG
CADILLAC       CLOUDY    42  37  82 SW8       29.88F
CHARLEVOIX     CLOUDY    35  35 100 CALM      29.92F FOG
FRANKFORT      CLOUDY    40  36  83 CALM      29.90S
GAYLORD        CLOUDY    35  31  85 SE3       29.88F FOG
GRAYLING       CLOUDY    36  34  93 CALM      29.91R FOG
HARBOR SPRINGS CLOUDY    33  33 100 CALM      29.90F FOG
HOUGHTON LAKE  CLOUDY    39  33  79 S3        29.90F
MANISTEE       CLOUDY    44  36  73 SW5       29.90S
OSCODA         CLOUDY    36  33  90 CALM      29.95R
PELLSTON       LGT RAIN  33  30  88 VRB6      29.89F FOG     WCI  28
ROGERS CITY    CLOUDY    33  31  94 SW3       29.94F FOG
TRAVERSE CITY  CLOUDY    39  37  92 CALM      29.89F
$$
MIZ007>008-015-241400-
EASTERN UPPER MICHIGAN

CITY           SKY/WX    TMP DP  RH WIND       PRES   REMARKS
KINROSS        MIX PCPN  32  31  96 SE6       29.92F WCI  26
MACKINAC ISLAN LGT SNOW  32  32 100 CALM      29.91S
NEWBERRY       MIX PCPN  31  31  98 CALM      29.89F VSB 3/4
MUNISING         N/A     33  33 100 CALM      29.90S
$$
MIZ004>006-011>014-085-241400-
CENTRAL UPPER MICHIGAN

CITY           SKY/WX    TMP DP  RH WIND       PRES   REMARKS
MANISTIQUE     MIX PCPN  32  32 100 CALM      29.91R
ESCANABA       LGT RAIN  34  33  96 CALM      29.90S FOG
MENOMINEE        N/A    N/A N/A N/A MISG        N/A
SAWYER-GWINN   CLOUDY    32  32 100 CALM      29.88S FOG
$$
MIZ001>003-009>011-084-241400-
WESTERN UPPER MICHIGAN

CITY           SKY/WX    TMP DP  RH WIND       PRES   REMARKS
IRON MOUNTAIN  FRZ RAIN  32  30  92 NW5       29.88R FOG     WCI  27
HOUGHTON       FOG       33  31  92 NW9       29.90S VSB 1/2 WCI  25
COPPER HARBOR    N/A     33  32  96 N10       29.92R WCI  25
IRONWOOD       CLOUDY    33  32  96 CALM      29.91S FOG
$$

ABBREVIATIONS USED IN REMARKS
   TC - TEMPERATURE IN CELSIUS
  WCI - WIND CHILL INDEX
   HX - HEAT INDEX
  VSB - VISIBILITY




USA.gov is the U.S. government's official web portal to all federal, state and local government web resources and services.